Regional Weather Roundup
Issued by NWS Newport/Morehead, NC

Current Version | Previous Version | Graphics & Text | Print | Product List | Glossary Off
Versions: 1 2 3 4 5 6 7 8 9 10 11 12 13 14 15 16 17 18 19 20 21 22 23 24 25 26 27 28 29 30 31 32 33 34 35 36 37 38 39 40 41 42 43 44 45 46 47 48 49 50

569
ASUS42 KMHX 251925
RWRMHX
WEATHER ROUNDUP FOR EASTERN NORTH CAROLINA
NATIONAL WEATHER SERVICE NEWPORT/MOREHEAD CITY NC
300 PM EDT WED APR 25 2018

NOTE: "FAIR" INDICATES FEW OR NO CLOUDS BELOW 12,000 FEET
WITH NO SIGNIFICANT WEATHER AND/OR OBSTRUCTIONS TO VISIBILITY

NCZ015>017-031-032-045>047-102-103-252000-
NORTH COAST

CITY           SKY/WX    TMP DP  RH WIND       PRES   REMARKS
EDENTON        PTSUNNY   72  62  71 NW8G18    29.68S
ELIZABETH CITY FAIR      73  62  68 S10       29.66F
KITTY HAWK     FAIR      73  58  59 S9        29.65F
MANTEO         FAIR      70  59  68 S20       29.68F

$$

NCZ045>047-081-094-103-104-252000-
CENTRAL COAST

CITY           SKY/WX    TMP DP  RH WIND       PRES   REMARKS
FRISCO         FAIR      72  62  71 SW14G22   29.72F

$$

NCZ095-097-098-100-101-252000-
SOUTHERN COAST

CITY           SKY/WX    TMP DP  RH WIND       PRES   REMARKS
BEAUFORT       FAIR      69  62  78 S15       29.72F
CEDAR ISLAND   NOT AVBL
JACKSONVILLE   PTSUNNY   73  56  54 W9G18     29.71F
PINEY ISLAND   NOT AVBL
WILMINGTON     PTSUNNY   76  56  49 W16       29.72F


$$

NCZ011>013-027>030-043-044-078>080-089-090>093-098-252000-
COASTAL PLAIN

CITY           SKY/WX    TMP DP  RH WIND       PRES   REMARKS
AHOSKIE        CLOUDY    68  62  80 CALM      29.69S
CLINTON        FAIR      70  58  65 W13G21    29.74F
ELIZABETHTOWN  CLOUDY    73  55  53 MISG      29.75S
GOLDSBORO      PTSUNNY   73  58  59 W21G26    29.69F
GREENVILLE     FAIR      73  57  56 W10       29.72F
HAVELOCK       MOSUNNY   75  62  64 S17       29.71F
KENANSVILLE    PTSUNNY   72  57  60 W12G17    29.72S
KINSTON        PTSUNNY   75  55  50 W15G21    29.70F
NEW BERN       FAIR      76  57  51 SW14G20   29.70F
RICHLANDS      CLOUDY    72  57  59 SW9G23    29.72F
ROCKY MOUNT    FAIR      71  60  68 SW10G18   29.70F
WASHINGTON     FAIR      75  57  53 SW16      29.68F
WHITEVILLE     PTSUNNY   73  56  56 W13       29.75S

$$

AMZ130-135-150-152-154-156-158-170-250-252-270-ANZ085-086-088-633-658-670-252000-
MARINE OBSERVATIONS

STATION/POSITION TIME  TEMP    WIND        PRES    WAVE   SWELL
                       AIR SEA DIR/SP/G            HT/PER HT/PER
                 (UTC) (F)     (DEG/KT/KT) (MB)    (FT/S) (FT/S)
CHESAPEAKE LIGHT NOT AVBL
64 E VA BEACH    1850   56 51  190/  8/ 10 1006.1   10/10  10/10
DUCK             1900   71 52  220/  7/ 10 1004.0
2 E DUCK         1900      54                N/A     6/11   3/11
OREGON INLET     1900   65 57  180/ 16/ 19 1005.2
13E OREGON INLT  1848      55                N/A     9/10   8/10
HATTERAS CG      1900   69 65  210/  8/ 12 1006.1
DIAMOND BUOY     1910   70 70  220/ 14/ 17 1006.7
CAPE LOOKOUT     1900          200/ 15/ 17 1007.0
BEAUFORT LAB     1900   66 63  200/ 15/ 17 1006.5
30 SE NEW RVR IN 1908   68 67  220/ 14/ 19 1004.4
30 SE NEW RVR IN 1900      67                N/A     7/10   2/11
27 SE WRIGHTSVLE 1908   66 66  230/ 19/ 23 1007.0
5 SE WRIGHTSVLE  NOT AVBL
225 S CAPE HAT   1910   72 73  250/ 12/ 14 1009.4
41 SE CHARLESTON 1910      69  240/ 17/ 23 1009.1

$$




USA.gov is the U.S. government's official web portal to all federal, state and local government web resources and services.